Theta_e
322 322 321 322 322 321 319 319 320 318 319 319 322 321 320 322 324 330 330 331 331 329 330 328 327 326 328 334 331 330 330 328 325 325 326 323 321 319 318 317 316 315 314 313
323 323 320 322 321 321 321 320 320 319 319 320 318 319 320 322 324 327 329 330 332 331 332 331 330 330 334 333 331 330 329 327 328 328 326 324 321 320 318 316 315 314 313 312
324 323 322 322 320 319 320 320 322 320 318 316 319 318 322 323 324 324 326 328 330 332 334 332 332 332 333 333 332 330 329 328 328 328 325 323 321 317 316 315 314 312 311 310
324 322 322 320 319 319 322 323 321 321 321 320 322 322 327 326 325 327 327 327 329 330 333 332 333 333 332 332 331 330 330 330 329 327 323 321 320 317 316 316 313 311 310 308
325 323 323 321 322 323 322 322 323 321 321 328 326 325 326 327 326 328 329 331 330 331 332 333 334 331 330 330 331 331 331 327 324 321 321 320 317 316 313 311 309 307 307 306
322 321 322 325 324 323 323 323 323 322 322 331 324 328 326 326 325 329 327 329 331 332 331 331 332 331 330 331 331 329 327 322 321 319 319 318 315 312 309 307 307 306 305 303
320 321 322 324 322 321 320 322 328 333 334 332 323 323 325 325 327 329 330 329 331 331 332 331 331 331 330 328 327 324 321 319 318 318 315 311 308 307 307 307 305 303 302 301
322 324 321 322 321 324 323 321 329 333 332 329 323 322 323 323 324 329 330 331 332 331 329 329 328 327 328 324 322 321 319 318 316 313 310 308 307 306 305 305 302 302 301 299
324 325 322 322 321 321 322 323 322 323 331 335 321 318 323 323 323 327 331 331 331 328 325 325 323 324 324 322 321 319 317 316 314 310 308 307 304 304 302 301 301 301 299 298
327 327 325 321 321 321 321 321 325 323 325 324 320 320 326 325 322 324 330 331 331 328 324 323 321 321 321 320 319 318 317 315 311 309 308 306 303 301 301 301 301 300 299 298
323 326 324 322 321 318 323 322 320 319 326 331 331 321 319 320 321 323 328 330 329 328 325 323 321 320 320 319 319 318 317 314 310 308 306 304 301 301 301 301 300 299 298 298
321 322 325 322 322 322 321 323 322 334 324 327 332 326 320 319 320 322 323 327 328 327 325 323 321 321 320 320 319 318 317 311 309 307 304 302 301 301 301 300 300 299 298 298
323 322 325 322 323 323 321 320 320 322 325 327 336 325 319 318 317 318 321 323 326 326 325 324 322 321 321 319 319 317 315 311 308 305 303 302 301 302 301 300 300 298 298 298
323 322 320 326 322 322 324 322 319 320 331 325 323 319 318 319 319 318 319 320 321 325 325 324 323 322 321 319 318 316 314 311 305 304 302 302 302 301 301 300 299 298 298 297
322 321 320 320 321 322 322 321 320 319 321 323 323 318 318 318 318 318 318 319 319 319 323 323 323 322 321 319 318 316 313 308 305 304 303 302 302 300 300 299 297 297 297 297
323 326 323 325 323 322 322 321 320 319 318 318 318 318 318 318 318 318 317 316 317 318 318 321 322 322 321 319 317 315 311 307 305 303 302 301 301 300 299 297 296 296 296 296
326 328 328 326 320 319 321 320 319 318 318 319 320 320 319 317 317 318 318 317 317 318 317 318 320 320 321 320 317 313 309 306 304 303 302 301 299 299 297 296 295 295 295 294
327 328 331 331 319 324 317 317 315 316 316 316 316 316 315 317 317 316 316 316 317 316 317 317 317 318 318 318 314 312 307 305 304 303 301 300 298 297 295 295 294 294 294 294
323 326 329 331 324 319 317 315 315 316 315 315 315 314 314 315 316 317 317 317 316 315 314 314 315 316 317 316 311 309 306 305 302 300 299 298 296 295 294 294 294 293 293 293
317 323 329 325 331 329 321 315 315 315 319 315 315 316 315 315 320 319 318 317 315 315 314 314 315 315 315 310 307 306 302 299 299 298 296 295 294 294 293 293 293 293 293 293
325 327 326 326 328 326 318 315 315 320 324 317 316 316 316 318 318 318 317 317 315 315 315 315 314 311 308 306 303 300 299 298 297 295 294 293 293 293 293 293 292 292 293 293
325 330 325 330 325 326 315 315 317 321 318 317 316 317 318 318 317 317 316 316 315 314 312 309 301 300 298 299 299 297 296 295 294 292 293 293 292 292 293 293 292 292 291 292
325 325 330 326 326 320 316 315 315 316 316 316 317 317 317 317 317 317 316 316 314 311 307 300 298 297 296 296 295 294 294 293 293 293 292 292 292 292 292 293 292 291 291 290
320 319 324 322 316 316 316 315 315 316 317 316 317 317 318 318 317 317 316 312 308 301 300 299 297 296 295 293 293 293 293 293 293 292 292 292 292 292 292 291 291 291 291 290
322 320 319 319 318 317 317 318 318 317 317 315 315 314 311 312 314 311 304 302 300 298 297 296 295 295 294 293 293 293 293 292 292 292 291 291 291 291 291 292 291 291 290 290
320 319 326 326 319 319 319 314 314 312 311 310 310 307 305 304 303 301 299 297 296 295 294 294 294 294 293 293 294 293 292 292 291 291 291 291 291 290 291 291 291 290 289 289
Wind_Speed
10 8 8 15 8 10 13 9 17 16 11 8 12 15 14 13 12 14 14 14 12 11 14 13 12 17 17 30 28 26 21 18 19 13 6 6 6 9 10 10 9 8 7 7
8 8 5 16 11 12 15 12 4 7 6 4 10 8 13 14 15 15 14 15 16 14 14 13 12 13 23 24 26 27 22 18 17 12 10 9 12 11 11 9 9 7 6 5
4 10 9 19 10 14 15 2 5 8 9 10 7 13 14 12 9 12 15 15 15 16 15 13 14 14 22 21 23 22 20 20 18 13 14 15 14 15 13 10 11 9 6 3
12 12 12 8 12 10 8 13 8 9 11 7 7 7 7 9 11 14 16 16 15 16 15 13 15 13 13 15 17 21 22 21 17 18 19 19 15 14 12 15 15 8 4 1
8 11 14 17 5 9 3 13 13 10 7 4 10 5 11 18 10 16 12 10 11 12 12 15 19 18 18 17 18 17 18 19 19 16 18 16 17 15 12 10 7 3 4 4
8 8 14 4 13 9 9 10 10 8 5 2 15 9 8 13 18 8 14 13 11 9 10 11 26 23 19 19 19 20 22 18 16 11 10 9 14 13 13 9 3 3 1 4
9 14 8 12 10 5 8 8 3 7 5 4 12 7 2 20 11 18 26 14 10 12 12 12 16 24 23 22 19 21 19 18 16 14 12 12 13 11 8 5 2 3 4 5
2 11 9 10 9 3 13 8 2 5 5 8 3 5 4 11 8 15 16 14 13 13 11 12 13 15 22 22 20 20 20 20 18 16 16 15 13 10 8 7 3 2 4 4
3 5 16 3 1 3 7 2 2 4 6 2 6 16 6 6 7 11 14 13 14 13 13 13 16 19 20 21 22 22 22 22 21 19 17 13 12 12 10 6 3 5 5 5
6 8 21 6 4 3 5 7 4 1 2 4 8 10 7 7 6 5 13 12 12 14 15 13 15 19 21 22 22 20 22 22 22 20 16 15 13 12 7 5 8 7 7 7
10 21 8 6 7 8 5 6 6 7 5 1 4 3 6 7 6 6 7 14 14 15 14 13 15 20 19 20 21 20 21 22 22 18 17 17 16 11 10 11 8 9 9 8
6 3 5 10 0 5 8 9 11 3 6 2 1 6 4 4 5 5 6 9 14 14 14 14 17 20 20 20 21 22 21 21 21 18 18 16 15 15 16 10 9 9 10 11
0 2 5 11 6 7 8 10 10 6 3 4 3 3 5 4 2 1 4 7 7 12 14 14 16 17 20 21 21 22 21 18 20 17 16 16 18 16 11 11 7 9 11 11
4 6 9 7 9 6 12 11 11 10 3 4 8 12 7 10 9 6 7 3 5 9 11 12 13 17 22 22 22 22 22 19 18 14 15 19 15 19 9 4 7 10 10 10
2 9 11 14 16 1 10 8 8 12 11 10 10 13 11 10 9 10 4 3 6 7 9 10 9 10 19 21 21 21 22 20 16 15 18 15 18 4 8 6 8 10 10 11
5 5 4 8 9 10 12 13 12 14 13 12 15 13 10 7 6 7 8 6 5 5 9 5 6 7 15 20 22 21 21 22 17 16 18 9 7 11 3 6 8 10 13 14
7 2 2 2 6 7 6 10 16 15 14 11 11 9 8 11 10 7 5 6 4 4 7 7 4 6 11 16 22 22 22 19 17 15 12 18 6 5 5 6 9 11 14 14
4 5 2 0 2 1 8 4 5 5 7 9 9 10 12 13 10 7 7 4 5 7 3 4 6 9 8 7 18 17 17 16 14 14 7 10 1 4 7 6 10 13 14 14
2 4 2 2 4 7 11 1 2 2 3 11 10 10 10 9 8 5 7 8 7 7 8 11 9 5 2 7 18 16 15 11 13 6 2 8 6 6 8 10 12 13 14 16
2 3 3 3 2 4 0 5 2 2 2 8 8 7 8 9 4 4 10 9 4 9 7 9 8 3 4 13 14 13 13 16 13 10 8 10 9 8 11 12 12 15 16 15
2 0 4 3 2 6 2 5 1 2 3 3 5 6 7 6 7 5 4 5 13 11 9 10 12 18 19 16 18 20 18 18 11 6 4 8 11 12 11 13 12 14 15 16
6 6 3 2 2 6 5 5 1 4 4 7 6 7 6 6 7 8 9 10 6 10 16 18 27 27 28 24 24 22 20 12 9 7 12 12 13 14 15 14 16 13 14 15
4 5 3 7 4 4 4 4 3 5 3 4 6 8 9 9 9 10 9 8 8 11 17 25 24 24 23 20 19 18 12 6 3 8 9 11 13 14 15 14 11 17 18 12
5 4 2 2 3 5 4 2 3 8 9 9 9 9 10 9 10 10 8 9 12 23 20 21 20 17 15 13 12 9 4 5 8 10 12 13 14 12 12 15 16 17 10 8
0 8 6 5 6 4 9 13 11 9 11 12 11 12 13 10 10 13 15 15 20 21 20 19 16 14 9 6 5 5 7 7 8 10 12 12 12 14 14 14 16 11 12 13
6 2 3 1 8 3 10 11 10 12 11 12 11 14 16 17 15 18 13 18 16 16 15 13 10 8 6 5 6 6 6 8 10 11 11 11 12 14 15 16 15 17 19 19
Wind_Direction
194 217 209 39 299 212 194 240 258 198 182 185 249 156 167 176 188 159 170 169 160 174 150 158 172 159 151 140 153 160 163 179 175 174 174 152 136 129 121 118 124 114 99 85
304 181 256 287 226 241 252 216 221 124 182 257 199 174 164 185 189 181 188 177 168 175 147 161 180 161 133 138 147 158 163 184 193 203 191 170 151 147 142 128 122 122 115 120
234 294 269 241 251 239 247 218 222 177 188 211 255 225 166 187 207 209 190 185 178 174 157 172 172 168 136 150 153 164 185 188 198 191 171 158 145 130 133 156 151 140 139 117
275 204 264 245 236 268 322 329 203 279 179 221 323 245 43 320 223 203 198 199 188 182 162 170 178 148 135 156 173 177 186 191 193 188 173 163 162 172 173 161 138 147 147 129
276 273 252 242 147 305 176 273 277 240 242 85 348 336 223 222 240 221 226 215 191 173 162 169 151 156 158 176 182 190 182 184 166 174 172 177 129 126 123 118 108 158 255 248
205 209 270 229 271 272 178 234 253 272 244 82 238 177 204 196 222 260 198 201 208 157 177 180 144 150 167 180 187 177 177 157 161 174 153 164 135 134 132 128 148 250 90 332
186 240 210 190 203 192 223 233 228 10 343 244 259 203 156 229 188 156 219 183 170 182 168 157 151 153 162 180 175 166 161 158 162 158 145 136 132 140 136 152 204 53 334 323
236 213 193 190 255 92 267 264 21 168 216 293 346 245 75 92 102 144 151 160 167 157 154 154 156 158 159 162 162 173 168 160 159 158 156 152 153 152 157 162 137 191 268 269
315 179 291 339 314 284 4 300 347 302 196 321 274 282 151 99 105 138 144 163 166 165 163 165 174 165 164 170 177 183 172 167 167 167 163 165 161 158 156 167 212 251 244 257
124 2 263 217 245 231 266 349 306 243 298 268 298 298 101 128 141 164 157 172 178 175 174 177 182 172 173 178 180 188 183 173 171 170 171 174 172 170 186 189 228 241 250 250
197 199 162 155 209 250 175 241 241 281 257 27 319 56 26 65 122 165 196 175 181 184 186 182 187 180 180 178 179 190 192 177 170 176 175 182 179 184 187 212 232 247 250 255
240 298 276 231 240 339 319 291 211 178 273 182 23 288 77 84 93 157 217 205 183 188 192 186 188 183 181 181 186 195 198 180 174 179 182 189 199 193 207 210 231 241 247 257
39 231 259 279 193 213 243 249 255 268 92 249 179 263 151 153 184 187 241 214 202 189 196 193 187 188 184 190 194 192 200 183 176 180 195 205 205 213 223 221 251 262 263 260
338 249 260 241 254 340 192 243 239 228 155 240 258 265 215 207 207 207 183 255 256 197 205 209 194 186 185 190 190 196 189 194 176 192 211 219 221 229 216 247 271 276 275 277
240 247 261 267 276 250 301 289 247 242 229 230 252 260 285 338 19 351 69 168 203 278 221 210 212 184 182 182 192 197 182 178 183 205 222 228 233 222 257 273 279 281 278 273
200 255 293 292 295 290 271 277 276 276 266 252 261 268 290 350 57 8 359 337 313 300 290 229 213 226 184 189 193 185 178 177 186 210 231 237 255 227 294 291 297 288 277 274
175 241 138 256 349 346 319 243 249 260 260 265 266 279 310 315 333 38 9 332 299 300 330 321 260 245 232 200 193 175 176 178 184 217 225 233 253 252 281 295 288 293 290 288
185 219 80 104 307 277 245 23 352 344 310 297 314 20 17 42 19 353 313 304 341 348 306 298 297 272 246 207 168 167 171 166 190 216 236 257 227 332 286 279 282 289 295 298
234 135 130 146 221 288 308 277 17 41 350 38 40 23 13 27 343 14 58 47 29 9 341 327 321 327 231 161 152 160 151 174 175 154 302 346 294 310 301 301 305 308 300 294
123 154 157 170 220 223 89 98 53 332 189 58 34 15 349 344 340 25 21 9 341 331 323 321 318 270 202 115 121 126 135 133 110 74 41 5 304 312 303 300 306 307 305 296
98 309 179 149 234 293 59 112 94 222 78 56 10 355 354 334 338 355 352 347 340 337 358 11 40 48 65 95 102 80 79 63 48 46 18 328 315 292 296 293 296 301 301 300
167 159 186 147 149 266 131 118 158 59 4 9 351 348 337 324 324 315 315 326 21 343 69 63 68 66 57 58 76 73 66 74 57 6 325 296 298 298 291 289 285 283 300 308
192 187 180 172 205 156 184 47 27 33 357 333 337 344 341 335 330 332 329 343 50 47 75 84 83 75 65 68 73 78 69 46 314 272 264 272 282 285 285 293 306 302 283 275
216 94 181 64 276 185 164 321 72 51 22 355 339 342 354 353 360 332 7 60 63 64 72 84 85 80 79 75 78 85 151 234 257 262 269 275 278 285 296 296 294 287 273 267
2 135 202 214 257 348 72 49 38 23 31 26 9 36 23 7 4 51 68 70 68 72 75 79 84 85 96 128 143 189 228 246 269 277 282 286 291 296 291 288 290 302 307 296
180 198 162 204 74 23 49 56 43 56 49 40 34 56 39 48 58 70 67 74 83 88 94 100 127 155 161 201 235 260 261 261 269 275 279 282 285 286 286 287 296 295 287 286